Погода в Орше

Погода в Орше : погода сейчас, прогноз погоды и архив. Всё, что Вы хотите узнать о погоде в Орше!

Хотите узнать прогноз погоды в Орше? Тогда Вам сюда: Погода в Орше

Поиск расширенной информации на нашем сайте:

Другие новости

Новости СМИ2

Главная страница сайта

Новости сайта

03.07.2017

Напоминаем, что на нашем специализированном сайте Метеоцентр.Азия вы можете получить высокодетализированные автоматические прогнозы погоды по пунктам России, СНГ и мира в авиационном формате (включающие направление и скорость ветра, видимость, явления погоды, количество и форму облачности, нижнюю и верхнюю границу облачности).


Погода в Орше - сегодня

Время (UTC), дата Ветер
(°,м/с) 
Видим.   Явления Облачность Т
(°С)
Тd
(°С)
f(%) Тe
(°С)
Pmin
(гПа)
dP
(гПа)
Po
(мм)
O2
(г/м3)
Тmin Tmax R s Состояние
почвы
03 11.08.18 180 (Ю) 10 км    3/0 средняя, верхняя 
[Ac trans|Ci fib]
+15.3 +11 76 +17  1023.3  -0.9  751  284           
06 11.08.18 210 (ЮЗ) 10 км    ясно 
+19.3 +11.9 62 +24  1022.6  -0.4  751  280  +15.2         
09 11.08.18 250 (З) 10 км    ясно 
+25.3 +14 50 +32  1021.6  -0.6  750  274           
12 11.08.18 260 (З) 10 км    ясно 
+27.1 +11.9 39 +31  1020.1  -1.3  749  272           
15 11.08.18 200 (Ю) 6{10}  10 км    ясно 
+26.2 +11.5 40 +29  1018.2  -1.9  748  273           
18 11.08.18 180 (Ю) 10 км    ясно 
+21.6 +13.2 59 +27  1017.6  -1  747  276    +27.6       
21 11.08.18 180 (Ю) 10 км    ясно 
+18.8 +13.3 70 +25  1016.2  -1.5  746  279           
00 12.08.18 180 (Ю) 10 км    ясно 
+16.9 +12.7 76 +22  1014.9  -1.5  745  280           
03 12.08.18 200 (Ю) 10 км    4/0 средняя 
[Ac trans]
+15.5 +11.8 79 +20  1013.7  -1.1  744  281           
06 12.08.18 140 (ЮВ) 8000 м  слаб. ливневой дождь  10/10 500 м кучево-дожд. 
[Cb cap]
+15.7 +15.1 96 +26  1013.7  744  280  +15.2       
09 12.08.18 280 (З) 10 км  {ливн. осадки}  8/4 600 м кучево-дожд., верхняя 
[Cb cap|Ci fib]
+18.6 +13.9 74 +26  1014.7  1.1  745  278      0.1     
12 12.08.18 260 (З) 4{10}  10 км  {ливн. осадки}  6/6 840 м 
[Cu med, cong]
+21.7 +10.9 50 +24  1014.2  -0.4  745  276           
15 12.08.18 250 (З) 3{11}  10 км    8/8 900 м 
[Cu Sc]
+21.7 +8.2 42 +22  1013.2  -0.9  744  276      0.3     
18 12.08.18 240 (ЮЗ) 10 км    4/0 средняя 
[Ac trans]
+19 +8.9 52 +20  1013.9  0.5  744  279    +22.9  0.3     
21 12.08.18 230 (ЮЗ) 10 км    ясно 
+15.1 +8.8 66 +16  1014.3  0.1  744  283           
00 13.08.18 250 (З) 10 км    ясно 
+13.8 +9 73 +14  1014.1  -0.2  744  284           
03 13.08.18 220 (ЮЗ) 10 км    8/0 средняя, верхняя 
[Ac trans|Ci fib]
+11.3 +8.2 81 +12  1014.2  -0.1  744  286           
06 13.08.18 210 (ЮЗ) 10 км    8/0 средняя, верхняя 
[Ac trans|Cc]
+14.5 +9.9 74 +16  1014.2  0.2  744  283  +10.1         
09 13.08.18 260 (З) 10 км    10/1 1000 м средняя, верхняя 
[Cu hum|Ac As|Cs]
+19.4 +9.4 52 +21  1014.1  0.2  744  278           
12 13.08.18 270 (З) 10 км    10/3 600 м средняя 
[Sc|Ac As]
+21 +9.9 49 +22  1013.2  -0.7  744  277           
15 13.08.18 350 (С) 9000 м  слаб. дождь  10/3 1000 м средняя 
[Sc|As op]
+18.6 +12.3 67 +25  1013.3  -0.1  744  278      0.0     
18 13.08.18 040 (СВ) 8000 м  слаб. дождь  10/10 330 м 
[Frnb|Ns]
+15.4 +13.8 90 +24  1013.2  -0.3  744  281    +21.1  0.8     
21 13.08.18 тихо ()   10 км  {дождь}  10/6 600 м средняя 
[Sc|As op]
+14.3 +13.2 93 +20  1013  -0.3  743  282      0.2     
00 14.08.18 150 (ЮВ) 10 км  {дождь}  10/8 630 м средняя 
[Sc|Ac As]
+14.8 +13 89 +21  1013.1  0.2  743  282           
03 14.08.18 020 (С) 8000 м  дымка  9/0 средняя, верхняя 
[Ac trans|Cs]
+14.1 +13 93 +21  1013.3  0.1  744  282      0.3     
Время (UTC), дата Ветер
(°,м/с) 
Видим.   Явления Облачность Т
(°С)
Тd
(°С)
f(%) Тe
(°С)
Pmin
(гПа)
dP
(гПа)
Po
(мм)
O2
(г/м3)
Тmin Tmax R s Состояние
почвы

Для получения пояснительной информации подведите курсор к названию столбца.

ПОГОДА в Орше - архив

Всё, что Вы хотите узнать о погоде в Орше - удобно и подробно!

Выберите нужную дату (начиная с 1 января 2015* года) и нажмите кнопку "Найти".
Будут отображены архивные сводки погоды по пункту Орша, начиная с указанной даты.


Отображать данные в формате CSV (для использования в таблицах Excel)


Внимание! Наш архив погоды предназначен исключительно для личного некоммерческого использования в познавательных целях. Если Вам необходимы официальные справки о состоянии погоды (для производственных, юридических, коммерческих и т.п. целей), обращайтесь в органы Росгидромета.

*Примечание: данная дата относится к архиву по метеостанциям СССР (Россия, СНГ, Балтия).
Архив по метеостанциям Зарубежной Европы и Азии (кроме Китая) хранится 10 дней, по другим регионам земного шара (Китай, Африка, Америка, Австралия, Океания) - 1 день.

Орша - район местоположения метеостанции


Название, широта, долгота, высота метеостанции:
Орша 55°ш. 30.4°д. 185 м над ур. моря [Беларусь]

Дополнительная информация

В oтличие oт бoльшинства пoгoдных сайтoв мы публикуем пoдрoбную метеoинфoрмацию в детальнoм прoфессиoнальнoм фoрмате.

Характеристики температуры и влажнoсти вoздуха измеряются на высoте 2 м в тени вдали oт зданий и деревьев.
Скoрoсть ветра измеряется на высoте 10 м (на урoвне рoста челoвека скoрoсть ветра ниже в 1.5-2 раза). Если метеoстанция нахoдится в гoрoде или в лесу, тo скoрoсть ветра занижена на 2-4 м/с пo сравнению с oткрытым местoм. Скoрoсть ветра над акватoриями крупных рек и oзёр, а также на вершинах хoлмoв на 2-5 м/с выше, чем в oбычных услoвиях.
Атмoсфернoе давление в разных тoчках местнoсти мoжет значительнo oтличаться oт давления на метеoстанции, в зависимoсти oт услoвий рельефа (при пoдъёме на 10 м давление пoнижается примернo на 1 мм рт.ст.).